Weather observations for the past three days for
Columbus, Columbus Metropolitan Airport
Imperial (Metric)
Date Time (edt) Wind (mph) Vis. (mi.) Weather Sky Cond. Temperature (ºF) Relative Humidity Wind Chill (°F) Heat Index (°F) Pressure Precipitation (in)
Air Dwpt 6 hour altimeter (in) sea level (mb) 1 hr 3 hr 6 hr
Max. Min.
23 20:51 W 6 10.00 Fair CLR 91 64.9 42% 93 29.88 1011.1
23 19:51 W 12 10.00 Fair CLR 95 63 100 95 35% 96 29.87 1010.8
23 18:51 W 9 10.00 Fair CLR 97 57.9 27% 96 29.87 1010.9
23 17:51 W 13 G 18 10.00 A Few Clouds FEW085 98.1 59 27% 98 29.87 1010.9
23 16:51 W 10 10.00 Fair CLR 97 57.9 27% 96 29.89 1011.4
23 15:51 NW 15 G 20 10.00 Fair CLR 99 57.9 26% 98 29.91 1012.2
23 14:51 Calm 10.00 Fair CLR 97 57.9 27% 96 29.94 1013.1
23 13:51 Vrbl 3 10.00 Fair CLR 97 59 97 80.1 28% 97 29.95 1013.6
23 12:51 N 9 G 20 10.00 Fair CLR 96.1 60.1 30% 96 29.98 1014.4
23 11:51 Vrbl 6 10.00 A Few Clouds FEW060 93 64 38% 95 29.99 1014.9
23 10:51 NW 9 10.00 Fair CLR 91.9 64.9 41% 94 29.99 1014.9
23 09:51 NW 8 10.00 Fair CLR 88 64.9 46% 90 29.99 1014.8
23 08:51 W 8 10.00 Fair CLR 84 64.9 53% 86 29.99 1014.9
23 07:51 NW 3 10.00 Fair CLR 80.1 66 82.9 73.9 62% 82 29.99 1014.8
23 06:51 Calm 10.00 Fair CLR 75.9 66.9 74% 77 29.99 1014.8
23 05:51 Calm 10.00 Fair CLR 75.9 68 77% 77 29.98 1014.6
23 04:51 E 3 10.00 Fair CLR 78.1 66.9 69% 80 29.97 1014.0
23 03:51 Calm 10.00 Fair CLR 80.1 66.9 64% 82 29.96 1014.0
23 02:51 Calm 10.00 A Few Clouds FEW070 81 66.9 62% 83 29.97 1014.3
23 01:51 NE 3 10.00 Fair CLR 82 66 96.1 82 58% 84 29.98 1014.7
23 00:51 Calm 10.00 Fair CLR 82.9 66 57% 85 29.99 1015.0
22 23:51 NW 6 10.00 Partly Cloudy SCT075 86 64.9 49% 88 30 1015.0
22 22:51 NW 8 10.00 A Few Clouds FEW070 87.1 64.9 48% 89 29.99 1014.9
22 21:51 NW 6 10.00 Mostly Cloudy BKN075 89.1 66 47% 92 29.98 1014.5
22 20:51 NW 6 10.00 A Few Clouds FEW080 93 64.9 40% 95 29.97 1014.2
22 19:51 N 7 10.00 Overcast OVC070 96.1 63 99 91.9 34% 98 29.96 1013.9
22 18:51 Vrbl 3 10.00 Mostly Cloudy BKN070 97 62.1 32% 98 29.96 1013.8
22 17:51 Vrbl 5 10.00 Mostly Cloudy BKN070 BKN090 96.1 64 35% 98 29.96 1013.9
22 16:51 NW 7 10.00 Fair CLR 97 64.9 35% 100 29.98 1014.4
22 15:51 NW 6 10.00 Mostly Cloudy BKN070 95 64 36% 97 30 1015.1
22 14:51 NE 8 10.00 Partly Cloudy SCT065 93.9 64 37% 96 30.02 1016.1
22 13:51 Calm 10.00 Partly Cloudy SCT060 93 64.9 95 77 40% 95 30.06 1017.3
22 12:51 Vrbl 6 10.00 Partly Cloudy SCT050 93 66.9 42% 97 30.09 1018.2
22 11:51 E 6 10.00 A Few Clouds FEW055 91.9 68 46% 96 30.11 1018.9
22 10:51 Calm 10.00 Fair CLR 88 70 55% 93 30.11 1019.2
22 09:51 S 5 10.00 Fair CLR 82.9 70 65% 87 30.12 1019.4
22 08:51 E 5 10.00 Fair CLR 79 68 69% 81 30.12 1019.4
22 07:51 Calm 10.00 Fair CLR 77 66.9 81 73 71% 79 30.11 1019.2
22 06:51 Calm 10.00 Fair CLR 75 64.9 71% 77 30.1 1018.8
22 05:51 Calm 10.00 Fair CLR 77 64 64% 79 30.1 1018.7
22 04:51 Calm 10.00 Fair CLR 78.1 63 60% 80 30.09 1018.3
22 03:51 E 6 10.00 Fair CLR 80.1 62.1 54% 81 30.09 1018.3
22 02:51 E 7 10.00 Fair CLR 80.1 62.1 54% 81 30.09 1018.5
22 01:51 E 5 10.00 Fair CLR 81 61 93 79 51% 82 30.1 1018.6
22 00:51 NE 5 10.00 Fair CLR 82.9 61 48% 83 30.11 1019.0
21 23:51 NE 5 10.00 A Few Clouds FEW075 81 62.1 53% 82 30.11 1019.1
21 22:51 NE 3 10.00 Mostly Cloudy BKN075 82.9 62.1 49% 84 30.11 1018.8
21 21:51 NE 5 10.00 Fair CLR 87.1 62.1 43% 88 30.09 1018.3
21 20:51 NE 5 10.00 Fair CLR 90 60.1 37% 90 30.08 1018.0
21 19:51 NE 6 10.00 Fair CLR 93 60.1 96.1 90 33% 93 30.08 1017.9
21 18:51 E 8 10.00 Fair CLR 93 57.9 31% 92 30.08 1017.9
21 17:51 NE 7 10.00 A Few Clouds FEW075 93.9 59 31% 93 30.09 1018.2
21 16:51 NE 6 10.00 Partly Cloudy SCT070 93.9 60.1 32% 94 30.1 1018.8
21 15:51 SE 9 G 17 10.00 A Few Clouds FEW065 93 60.1 33% 93 30.12 1019.5
21 14:51 E 10 G 20 10.00 A Few Clouds FEW060 93 60.1 33% 93 30.15 1020.4
21 13:51 E 12 G 20 10.00 Partly Cloudy SCT060 91 61 91.9 75 37% 91 30.17 1021.0
21 12:51 E 12 G 20 10.00 Partly Cloudy SCT055 89.1 61 39% 89 30.19 1021.7
21 11:51 NE 7 G 17 10.00 Partly Cloudy SCT047 87.1 64 46% 88 30.21 1022.2
21 10:51 Vrbl 7 10.00 Fair CLR 86 64.9 49% 88 30.22 1022.7
21 09:51 SE 5 10.00 Fair CLR 82 64 55% 84 30.23 1023.0
21 08:51 Calm 10.00 Fair CLR 78.1 64.9 64% 80 30.23 1023.2
21 07:51 NE 3 10.00 Fair CLR 75 64 75.9 70 69% 77 30.23 1023.1
21 06:51 Calm 10.00 Fair CLR 72 63 73% 30.22 1022.7
21 05:51 NE 3 10.00 Fair CLR 72 63 73% 30.21 1022.5
21 04:51 Calm 10.00 Fair CLR 72 62.1 71% 30.21 1022.3
21 03:51 E 3 10.00 Fair CLR 73.9 62.1 67% 30.2 1022.2
21 02:51 E 5 10.00 Fair CLR 75 62.1 64% 77 30.2 1022.1
21 01:51 E 3 10.00 Fair CLR 75 61 90 75 62% 77 30.2 1022.1
21 00:51 NE 5 10.00 Fair CLR 79 61 54% 80 30.2 1022.0
20 23:51 NE 5 10.00 Fair CLR 80.1 60.1 51% 81 30.2 1022.1
20 22:51 E 3 10.00 Fair CLR 82 60.1 47% 82 30.2 1022.0
20 21:51 E 3 10.00 Fair CLR 82.9 60.1 46% 83 30.19 1021.6
Date Time (edt) Wind (mph) Vis. (mi.) Weather Sky Cond. Air Dwpt Max. Min. Relative Humidity Wind Chill (°F) Heat Index (°F) altimeter (in) sea level (mb) 1 hr 3 hr 6 hr
6 hour
Temperature (ºF) Pressure Precipitation (in)